This is the latest recevied weather packets stored in our database for station/object NE8U. If no packets are shown the sender has not sent any weather packets the latest 10 day(s).
| Time | Temp. | Humidity | Pressure | Rain* | Wind** | Luminosity | Snow |
|---|---|---|---|---|---|---|---|
| 1778116507 | 25.56° C | 20% | 1014.9 hPa | 0 mm | - | 31 W/m² | - |
| 1778116202 | 25.56° C | 20% | 1015 hPa | 0 mm | - | 36 W/m² | - |
| 1778115897 | 26.11° C | 20% | 1014.9 hPa | 0 mm | - | 46 W/m² | - |
| 1778115594 | 26.67° C | 20% | 1014.9 hPa | 0 mm | - | 35 W/m² | - |
| 1778115292 | 26.11° C | 20% | 1014.9 hPa | 0 mm | - | 99 W/m² | - |
| 1778114988 | 26.11° C | 20% | 1014.9 hPa | 0 mm | - | 108 W/m² | - |
| 1778114684 | 26.11° C | 20% | 1015.1 hPa | 0 mm | - | 121 W/m² | - |
| 1778114383 | 26.67° C | 20% | 1014.6 hPa | 0 mm | - | 145 W/m² | - |
| 1778114077 | 26.67° C | 20% | 1014.5 hPa | 0 mm | - | 160 W/m² | - |
| 1778113772 | 26.67° C | 20% | 1014.8 hPa | 0 mm | - | 170 W/m² | - |
| 1778113469 | 26.67° C | 20% | 1014.8 hPa | 0 mm | - | 167 W/m² | - |
| 1778113166 | 26.11° C | 21% | 1014.9 hPa | 0 mm | - | 203 W/m² | - |
| 1778112863 | 26.67° C | 21% | 1014.6 hPa | 0 mm | - | 216 W/m² | - |
| 1778112561 | 26.67° C | 20% | 1014.6 hPa | 0 mm | - | 228 W/m² | - |
| 1778112255 | 26.67° C | 21% | 1014.6 hPa | 0 mm | - | 243 W/m² | - |
| 1778111951 | 27.22° C | 20% | 1014.6 hPa | 0 mm | - | 262 W/m² | - |
| 1778111649 | 26.67° C | 21% | 1014.5 hPa | 0 mm | - | 280 W/m² | - |
| 1778111344 | 27.22° C | 21% | 1014.6 hPa | 0 mm | - | 310 W/m² | - |
| 1778111043 | 26.67° C | 21% | 1014.4 hPa | 0 mm | - | 336 W/m² | - |
| 1778110740 | 26.67° C | 21% | 1014.6 hPa | 0 mm | - | 344 W/m² | - |
| 1778110435 | 26.67° C | 21% | 1014.8 hPa | 0 mm | - | 350 W/m² | - |
| 1778110133 | 27.22° C | 21% | 1014.5 hPa | 0 mm | - | 362 W/m² | - |
| 1778109829 | 27.78° C | 21% | 1014.8 hPa | 0 mm | - | 379 W/m² | - |
| 1778109525 | 27.22° C | 21% | 1014.9 hPa | 0 mm | - | 415 W/m² | - |
| 1778109223 | 27.22° C | 21% | 1014.9 hPa | 0 mm | - | 426 W/m² | - |
* Rain latest hour (hover to see other rain measurements)
** Current wind speed in m/s (hover to see current wind gust speed)